This is the latest recevied weather packets stored in our database for station/object WZ8H. If no packets are shown the sender has not sent any weather packets the latest 10 day(s).
| Time | Temp. | Humidity | Pressure | Rain* | Wind** | Luminosity | Snow |
|---|---|---|---|---|---|---|---|
| 1777465206 | 10.56° C | 92% | 1009.6 hPa | 0.25 mm | - | 62 W/m² | - |
| 1777464900 | 11.11° C | 91% | 1009.5 hPa | 0.25 mm | - | 58 W/m² | - |
| 1777464599 | 11.11° C | 92% | 1009.6 hPa | 0.25 mm | - | 76 W/m² | - |
| 1777464271 | 11.67° C | 91% | 1009.6 hPa | 0.25 mm | - | 69 W/m² | - |
| 1777463964 | 11.67° C | 91% | 1009.8 hPa | 0.25 mm | - | 83 W/m² | - |
| 1777463662 | 11.67° C | 91% | 1010 hPa | 0.25 mm | - | 44 W/m² | - |
| 1777463335 | 11.67° C | 91% | 1010.1 hPa | 0 mm | - | 28 W/m² | - |
| 1777463037 | 11.67° C | 90% | 1010.3 hPa | 0 mm | - | 16 W/m² | - |
| 1777462707 | 11.67° C | 90% | 1010.4 hPa | 0 mm | - | 25 W/m² | - |
| 1777462402 | 11.67° C | 90% | 1010.5 hPa | 0 mm | - | 14 W/m² | - |
| 1777462081 | 11.67° C | 90% | 1010.5 hPa | 0 mm | - | 18 W/m² | - |
| 1777461785 | 11.67° C | 90% | 1010.8 hPa | 0 mm | - | 16 W/m² | - |
| 1777461475 | 11.67° C | 90% | 1010.5 hPa | 0 mm | - | 11 W/m² | - |
| 1777461172 | 11.67° C | 90% | 1010.9 hPa | 0 mm | - | 19 W/m² | - |
| 1777460845 | 11.67° C | 90% | 1010.9 hPa | 0 mm | - | 7 W/m² | - |
| 1777460518 | 11.67° C | 90% | 1010.9 hPa | 0 mm | - | 0 W/m² | - |
| 1777460194 | 11.67° C | 89% | 1010.5 hPa | 0 mm | - | 5 W/m² | - |
| 1777459866 | 11.67° C | 89% | 1010.4 hPa | 0 mm | - | 0 W/m² | - |
| 1777459569 | 11.67° C | 90% | 1010.5 hPa | 0 mm | - | 0 W/m² | - |
| 1777459260 | 11.67° C | 90% | 1010.6 hPa | 0 mm | - | 0 W/m² | - |
| 1777458935 | 11.67° C | 90% | 1010.6 hPa | 0 mm | - | 0 W/m² | - |
| 1777458630 | 12.22° C | 90% | 1010.4 hPa | 0 mm | - | 0 W/m² | - |
| 1777458305 | 12.22° C | 90% | 1010.4 hPa | 0 mm | - | 0 W/m² | - |
| 1777457999 | 12.22° C | 90% | 1010.5 hPa | 0 mm | - | 0 W/m² | - |
| 1777457697 | 12.22° C | 90% | 1010.6 hPa | 0 mm | - | 0 W/m² | - |
* Rain latest hour (hover to see other rain measurements)
** Current wind speed in m/s (hover to see current wind gust speed)